Location: Krasnoyarskiy Pitomnik
(51.1333°N, 71.6167°E)
Time: 15:25:00
(UTC+00:00)

Cosmos 614 Rocket - Pass Details

Date: 22 October 2021
Orbit: 733 x 763 km, 74.1° (Epoch: 26 November)

Event Time Altitude Azimuth Distance (km) Brightness Sun altitude
Rises 13:22:08 0° 338° (NNW) 3,174 7.5 -12.5°
Reaches altitude 10° 13:24:35 10° 344° (NNW) 2,249 6.6 -12.9°
Maximum altitude 13:29:29 46° 58° (ENE) 984 4.2 -13.7°
Enters shadow 13:33:44 13° 130° (SE) 2,013 5.7 -14.3°
